Voltar ao catálogo

ARIANE 2 DEB

AtivoGTO
NORAD 27042·DEBRIS·🇫🇷 France

Lançado Jan 27, 1989 de Guiana Space Centre

Loading…

TLE

EnvelhecendoSource: Space-Track

Época: Sep 14, 2026, 14:02 UTC

1 27042U 89006X   26257.58515439 -.00000162  00000-0  56570-3 0  9996
2 27042   7.8672 229.7867 7110676 137.5972 325.1918  2.25327817103527

Acompanhe ARIANE 2 DEB em tempo real com AllMySat

Download on the App Store